Date,TemperatureHighF,TemperatureAvgF,TemperatureLowF,DewpointHighF,DewpointAvgF,DewpointLowF,HumidityHigh,HumidityAvg,HumidityLow,PressureMaxIn,PressureMinIn,WindSpeedMaxMPH,WindSpeedAvgMPH,GustSpeedMaxMPH,PrecipitationSumIn
2013-1-20,43.7,33.5,22.7,34.4,19.9,11.8,81,58,41,30.03,29.62,27,5,27,0.00
2013-1-21,26.7,23.5,18.8,19.6,14.5,9.8,86,69,50,30.08,29.82,4,1,10,0.00
2013-1-22,21.6,16.0,10.1,16.7,2.2,-2.8,82,56,40,30.14,29.82,11,4,20,0.00
2013-1-23,11.1,7.4,3.2,-0.5,-3.9,-6.0,70,60,47,30.24,30.17,11,3,21,0.00
2013-1-24,15.3,9.3,-2.8,2.5,-1.6,-7.0,83,62,43,30.42,30.19,19,4,23,0.00
2013-1-25,17.7,13.8,6.0,11.3,3.7,-2.3,86,65,45,30.45,30.10,8,1,12,0.00
2013-1-26,20.9,15.6,9.5,9.0,6.3,5.0,87,67,53,30.36,30.10,14,2,14,0.00
2013-1-27,27.0,18.2,2.4,8.0,4.4,-1.1,87,57,35,30.54,30.36,7,1,9,0.00
2013-1-28,32.4,27.9,19.1,30.6,23.5,10.7,93,84,63,30.41,29.97,5,1,10,0.00
2013-1-29,39.9,34.1,26.8,37.8,31.8,25.0,94,91,88,30.17,30.00,10,1,16,0.00
2013-1-30,57.9,50.9,39.9,55.3,48.4,37.8,94,91,87,30.03,29.44,10,4,25,0.00
2013-1-31,51.4,34.7,25.0,48.6,25.9,20.0,90,71,50,29.65,28.99,14,6,29,0.00
2013-2-1,27.8,23.8,19.2,18.0,12.2,7.7,84,61,50,30.18,29.76,12,5,24,0.00
2013-2-2,27.9,22.1,10.6,16.3,12.0,5.0,82,66,48,30.24,30.03,6,2,15,0.00
2013-2-3,28.7,23.6,16.2,16.3,14.5,12.7,90,68,53,30.06,29.79,4,0,6,0.00
2013-2-4,26.1,21.7,15.1,17.3,12.5,9.7,83,68,52,29.98,29.79,9,3,21,0.00
2013-2-5,28.6,25.0,16.7,17.8,13.2,9.6,84,61,51,30.04,29.90,5,1,8,0.00
2013-2-6,34.4,27.5,20.2,25.5,15.0,4.0,88,61,38,30.39,29.97,14,3,23,0.00
2013-2-7,26.7,21.2,13.4,10.5,7.2,3.3,79,55,43,30.56,30.38,6,1,9,0.00
2013-2-8,32.0,25.5,21.0,25.6,20.6,9.9,91,82,62,30.40,29.83,11,2,15,0.00
2013-2-9,24.8,19.7,15.2,13.6,8.9,3.1,88,64,44,30.31,29.97,11,5,17,0.00
2013-2-10,28.1,19.7,12.7,9.2,7.5,4.8,77,60,39,30.54,30.33,4,1,10,0.00
2013-2-11,43.6,36.7,17.1,38.9,31.8,10.9,93,83,49,30.26,29.66,12,3,22,0.00
2013-2-12,38.0,36.5,33.7,29.6,27.7,25.0,73,70,66,29.95,29.77,16,4,21,0.00
2013-2-13,38.6,34.6,30.8,27.5,23.9,21.6,83,65,52,29.89,29.74,6,1,12,0.00
2013-2-14,38.8,34.0,23.8,26.0,23.9,19.0,86,67,57,29.96,29.78,7,1,14,0.00
2013-2-15,49.4,41.2,32.0,30.5,27.3,23.6,90,58,46,30.03,29.90,8,2,13,0.00
2013-2-16,33.7,29.3,23.9,20.4,16.3,9.3,72,58,51,30.02,29.85,8,3,15,0.00
2013-2-17,25.4,19.3,13.5,10.0,4.6,0.6,66,53,39,29.97,29.67,18,6,29,0.00
2013-2-18,27.9,20.3,10.3,10.6,4.2,-1.2,68,50,35,30.24,29.96,12,4,20,0.00
2013-2-19,43.9,34.6,18.6,34.8,24.0,9.6,93,67,48,30.17,29.64,11,2,23,0.00
2013-2-26,45.4,38.1,27.0,31.9,28.6,24.7,92,69,52,30.32,30.04,9,1,11,0.00
2013-2-27,45.6,38.9,32.9,37.5,34.2,27.5,94,84,69,30.04,29.54,10,2,18,0.00
2013-2-28,43.9,38.0,34.0,38.1,34.8,31.8,95,88,74,29.61,29.56,6,1,9,0.00
2013-3-1,39.3,35.0,32.0,34.0,31.6,27.7,94,88,75,29.78,29.61,5,1,11,0.00
2013-3-2,35.4,30.7,25.7,27.7,24.6,21.8,87,78,67,29.79,29.72,8,3,16,0.00
2013-3-3,31.2,27.2,23.9,25.8,21.4,18.8,86,79,71,29.79,29.71,8,3,16,0.00
2013-3-4,31.0,28.2,25.7,22.4,21.4,20.0,81,75,68,29.83,29.77,12,5,21,0.00
2013-3-7,38.1,33.8,29.6,30.2,27.4,23.6,92,78,59,30.17,30.11,8,3,15,0.00
2013-3-8,41.0,32.8,29.1,30.4,27.7,24.6,93,82,61,30.30,30.10,10,3,17,0.00
2013-3-9,49.2,35.0,25.7,27.3,24.5,21.6,86,68,36,30.37,30.28,9,1,12,0.00
2013-3-10,53.8,39.5,21.0,31.8,24.7,18.5,92,60,31,30.37,30.20,5,2,18,0.00
2013-3-11,50.4,44.6,37.4,41.6,34.3,29.0,77,67,54,30.25,29.99,10,3,18,0.00
2013-3-12,53.5,48.2,39.1,50.8,44.5,34.0,94,87,76,30.01,29.67,13,3,22,0.00
2013-3-13,46.5,38.9,30.8,34.0,28.6,22.0,91,68,42,29.88,29.78,13,3,16,0.00
2013-3-14,27.8,27.3,26.2,18.5,15.7,13.4,71,62,55,29.93,29.87,11,5,22,0.00
2013-3-15,37.7,32.6,20.7,30.4,22.8,10.7,87,67,49,29.93,29.67,7,2,17,0.00
2013-3-16,35.4,30.8,24.8,18.1,15.7,12.7,69,54,40,29.93,29.80,5,2,15,0.00
2013-3-17,32.7,26.9,22.4,17.3,14.3,11.0,68,59,44,30.14,29.93,9,4,16,0.00
2013-3-18,39.2,30.6,15.1,26.4,13.9,5.0,91,54,24,30.46,30.10,5,1,13,0.00
2013-3-19,34.6,31.4,27.5,32.4,28.8,24.8,94,90,79,30.10,29.71,5,1,13,0.00
2013-3-20,36.7,29.7,16.9,25.0,21.4,14.5,92,72,55,29.83,29.77,9,2,15,0.00
2013-3-21,36.1,27.3,13.5,19.2,14.9,10.7,90,62,38,29.83,29.66,8,2,13,0.00
2013-3-22,35.4,31.5,20.0,25.2,22.6,13.9,85,70,59,29.84,29.71,15,3,21,0.00
2013-3-23,41.0,35.4,30.8,24.4,22.8,20.6,73,60,48,29.90,29.80,16,5,27,0.00
2013-3-24,44.1,36.3,32.0,25.5,23.9,22.0,71,61,45,29.91,29.77,9,2,14,0.00
2013-3-25,43.6,36.5,29.0,29.2,26.3,23.0,81,67,49,29.78,29.53,7,2,11,0.00
2013-3-26,47.2,38.2,28.9,30.2,26.0,20.2,85,64,37,29.86,29.61,8,1,14,0.00
2013-3-27,51.2,38.5,26.8,34.3,28.0,22.4,85,67,44,29.95,29.84,13,2,19,0.00
2013-3-28,48.6,40.9,36.3,36.2,33.0,30.4,88,74,59,30.06,29.94,8,2,11,0.00
2013-3-30,52.5,44.3,34.0,25.2,24.0,22.1,66,46,32,30.12,30.06,5,1,11,0.00
2013-3-31,55.9,39.0,28.8,39.8,27.7,22.3,92,66,34,30.12,29.72,18,1,18,0.00
2013-4-1,54.9,40.3,31.2,46.2,30.2,16.3,95,69,42,29.89,29.56,26,4,26,0.00
2013-4-2,37.0,32.3,27.0,25.0,19.1,13.1,84,59,38,30.04,29.88,10,5,28,0.00
2013-4-3,41.0,33.2,27.1,22.0,18.0,13.4,75,55,35,30.29,30.01,10,5,28,0.00
2013-4-4,54.4,40.2,27.4,26.3,21.8,18.5,79,51,27,30.36,29.98,5,2,14,0.00
2013-4-5,53.2,44.6,36.4,31.1,25.4,19.6,77,48,30,29.99,29.77,9,4,21,0.00
2013-4-6,47.2,39.6,32.8,29.6,13.3,5.8,77,37,20,30.30,29.99,6,2,13,0.00
2013-4-7,59.9,50.9,40.8,40.3,31.1,20.6,73,49,27,30.20,29.86,8,5,31,0.01
2013-4-8,60.9,53.0,43.6,41.1,36.6,34.2,75,55,38,30.13,29.92,5,2,11,0.00
2013-4-9,60.4,55.6,50.4,49.0,44.4,38.9,84,66,48,30.04,29.82,8,3,19,0.04
2013-4-10,58.9,50.7,44.8,50.8,47.2,43.1,95,88,71,30.00,29.83,4,1,11,0.69
2013-4-11,44.7,39.4,33.6,43.1,31.5,25.3,94,74,54,30.15,29.88,6,3,15,0.02
2013-4-12,41.4,36.7,33.3,37.2,34.0,28.9,95,90,81,30.13,29.78,4,1,11,0.54
2013-4-13,49.9,42.8,37.1,41.2,37.9,35.8,95,84,64,29.94,29.81,6,1,10,0.01
2013-4-14,46.7,42.2,32.0,35.6,29.8,26.3,82,62,48,30.25,30.02,7,3,17,0.03
2013-4-15,61.4,53.3,31.1,36.7,33.5,26.3,83,48,37,30.38,30.23,5,2,16,0.00
2013-4-16,60.2,55.8,48.4,54.3,46.8,31.6,90,72,51,30.31,30.01,8,4,24,0.25
2013-4-17,59.0,48.5,43.1,38.4,37.3,34.4,79,66,42,30.27,30.23,5,3,11,0.00
2013-4-18,65.1,59.3,54.4,45.2,38.2,34.5,71,47,34,30.19,30.06,8,6,26,0.00
2013-4-19,72.1,65.4,45.0,60.9,57.3,42.1,90,76,66,29.89,29.52,20,5,24,0.83
2013-4-20,54.1,44.9,35.7,41.9,33.8,22.4,93,68,39,30.33,29.73,8,3,24,0.26
2013-4-21,43.7,33.7,30.6,23.2,21.6,20.0,66,61,44,30.62,30.33,5,3,13,0.00
2013-5-8,73.6,66.2,59.4,61.6,58.0,53.1,94,77,53,30.11,29.97,4,1,15,0.12
2013-5-9,70.7,61.9,51.4,58.0,54.5,50.0,95,78,53,29.99,29.85,3,1,11,0.01
2013-5-10,63.7,54.6,50.6,55.5,52.2,48.9,95,92,74,29.98,29.91,2,0,5,0.00
2013-5-12,59.4,53.4,44.1,40.8,32.9,26.2,67,47,30,29.87,29.70,6,3,16,0.01
2013-5-13,50.4,44.5,35.7,35.2,30.7,27.2,87,60,46,30.10,29.87,5,2,14,0.00
2013-5-14,57.4,48.9,36.1,35.4,32.3,27.8,87,55,33,30.13,30.01,4,1,11,0.00
2013-5-15,64.1,49.0,33.9,53.1,39.1,29.8,86,70,43,30.05,29.60,3,1,16,0.08
2013-5-16,79.1,70.9,54.5,49.5,40.2,33.8,83,34,22,29.85,29.68,7,3,26,0.00
2013-5-17,58.4,56.5,49.2,42.1,41.6,40.4,72,58,52,30.05,29.86,3,1,10,0.00
2013-5-21,76.2,70.6,63.6,69.2,65.4,61.1,94,84,70,29.87,29.77,6,1,16,0.35
2013-5-22,79.0,68.9,62.5,71.4,65.9,61.0,95,90,74,29.90,29.76,3,1,12,1.62
2013-5-23,72.5,71.7,70.1,68.5,67.9,66.4,89,88,87,29.79,29.77,3,2,11,0.00
2013-5-24,45.4,44.5,43.9,43.8,42.6,42.0,94,93,92,30.00,29.97,4,3,12,0.79
2013-5-25,45.8,45.0,44.0,44.4,43.1,41.6,95,93,90,29.98,29.91,5,3,15,0.70
2013-5-26,54.6,46.8,41.6,43.4,41.3,40.0,94,83,62,30.14,30.07,3,1,10,0.15
2013-5-27,70.4,60.3,40.1,45.5,40.5,35.4,95,51,32,30.21,30.11,4,2,12,0.01
2013-5-28,71.6,56.9,41.2,54.1,46.2,38.1,90,69,38,30.22,30.11,3,0,9,0.00
2013-5-29,78.0,65.1,57.6,69.5,61.2,54.0,95,88,72,30.12,29.90,11,1,46,1.59
2013-5-30,87.0,79.9,66.2,70.8,67.4,63.9,96,68,52,30.10,30.03,4,1,11,0.01
2013-5-31,91.1,82.9,65.4,72.2,66.8,63.3,93,60,45,30.10,29.91,2,1,11,0.00
2013-6-1,89.6,78.6,67.5,73.5,66.9,61.8,82,68,50,29.96,29.81,2,1,8,0.00
2013-6-2,88.0,75.6,67.0,73.4,69.3,65.0,94,82,59,29.81,29.67,4,1,16,0.58
2013-6-3,68.1,64.0,55.3,65.9,54.3,38.9,95,72,45,29.94,29.79,5,2,14,0.02
2013-6-4,71.5,60.0,49.6,49.3,44.2,41.3,78,57,40,30.13,29.93,6,2,16,0.00
2013-6-5,73.2,61.2,47.8,51.4,46.7,41.6,88,61,37,30.21,30.08,3,1,7,0.00
2013-6-6,72.9,62.5,52.7,56.7,51.9,47.4,94,71,43,30.14,30.03,3,1,12,0.36
2013-6-7,58.5,57.1,55.3,57.1,55.4,53.9,95,94,92,29.97,29.79,2,0,4,0.56
2013-6-8,70.2,63.4,55.1,60.7,57.8,53.7,95,82,70,30.05,29.77,4,1,12,0.29
2013-6-9,75.8,68.3,59.4,59.7,57.1,54.7,88,69,50,30.17,30.10,4,1,12,0.00
2013-6-10,64.5,62.5,54.7,62.3,60.4,53.0,95,93,86,30.18,29.87,5,0,5,0.56
2013-6-11,70.0,62.7,59.0,67.2,61.0,57.9,96,94,84,29.86,29.55,3,0,11,1.18
2013-6-12,72.4,66.9,57.6,56.9,54.5,51.0,89,66,51,29.84,29.78,4,1,14,0.00
2013-6-13,58.4,57.0,54.3,57.0,55.1,51.2,95,93,89,29.82,29.66,2,0,8,1.29
2013-6-14,76.0,65.9,54.9,60.9,57.6,53.8,96,76,48,29.86,29.73,4,1,11,0.01
2013-6-15,76.5,67.1,50.8,56.0,48.9,43.0,95,55,34,29.99,29.90,5,2,16,0.00
2013-6-16,72.3,65.3,52.0,62.3,56.7,47.2,92,74,61,29.96,29.69,3,1,11,0.00
2013-6-17,81.6,68.1,60.7,66.0,62.6,58.3,96,84,52,29.91,29.78,7,0,23,0.19
2013-6-18,67.7,60.8,52.9,58.8,55.6,50.9,95,83,68,29.96,29.91,4,1,13,0.00
2013-6-19,71.5,62.1,51.4,51.1,48.0,42.2,94,62,39,30.17,29.96,3,1,12,0.00
2013-6-20,77.8,67.8,49.4,59.4,53.2,46.9,91,62,40,30.27,30.17,2,1,6,0.00
2013-6-21,82.3,72.5,61.7,61.8,57.5,51.6,81,61,35,30.26,30.19,2,0,5,0.00
2013-6-22,83.1,74.9,64.3,67.8,63.7,60.0,86,69,54,30.20,30.06,3,1,8,0.00
2013-6-23,90.0,82.1,73.4,74.5,69.1,64.2,79,66,53,30.10,29.95,3,1,12,0.00
2013-6-24,91.1,75.7,66.6,73.2,68.2,65.1,95,80,49,30.01,29.90,4,1,14,0.81
2013-6-25,89.1,73.5,63.4,75.6,68.6,62.2,96,86,56,29.97,29.74,5,0,17,0.32
2013-6-26,80.7,73.0,68.5,72.1,68.7,67.0,96,87,68,29.81,29.75,2,0,6,0.03
2013-6-27,84.1,74.2,64.5,72.2,68.3,63.0,96,83,59,29.81,29.59,3,0,12,0.03
2013-6-28,79.4,72.1,67.7,71.3,67.8,65.4,95,87,66,29.59,29.36,5,1,15,1.48
2013-6-29,80.7,72.6,67.7,70.6,67.1,65.4,96,84,64,29.68,29.48,2,0,9,0.12
2013-6-30,84.0,74.3,66.6,72.0,68.5,65.4,96,83,63,29.90,29.77,2,0,9,0.04
2013-7-1,77.3,71.2,66.4,73.0,69.0,64.9,96,93,84,30.01,29.90,3,0,7,0.11
2013-7-2,84.0,76.6,67.0,75.3,71.5,65.3,95,85,72,30.11,30.01,3,1,14,0.01
2013-7-3,85.9,80.0,75.0,75.7,72.6,70.6,88,79,68,30.18,30.10,3,1,9,0.00
2013-7-4,89.5,85.1,77.0,76.5,74.2,72.1,85,70,62,30.17,30.06,3,1,13,0.00
2013-7-5,91.1,80.9,72.9,78.6,73.3,70.5,93,78,62,30.15,30.00,3,1,11,0.00
2013-7-6,85.5,78.1,71.4,71.7,69.2,66.9,90,75,54,30.08,30.00,3,0,7,0.00
2013-7-7,89.2,78.5,69.8,77.2,72.1,66.4,93,82,61,30.04,29.89,3,0,9,0.06
2013-7-8,84.7,78.4,70.8,70.7,69.1,66.6,93,74,58,30.03,29.92,3,1,10,0.15
2013-7-9,85.8,77.4,70.0,73.3,70.2,65.0,96,80,51,30.07,29.95,2,0,7,0.30
2013-7-10,84.5,77.1,73.2,75.8,72.9,69.4,95,87,73,29.97,29.76,4,1,16,1.33
2013-7-11,81.7,75.7,68.9,72.6,64.2,60.3,95,69,50,29.97,29.75,4,1,11,0.00
2013-7-12,83.1,77.7,67.6,68.3,65.5,60.7,80,67,58,30.12,29.96,3,1,11,0.00
2013-7-13,78.9,74.0,67.3,72.5,68.3,62.3,93,83,73,30.28,30.23,2,0,4,0.00
2013-7-14,89.0,81.5,71.3,76.0,72.9,69.2,94,77,59,30.32,30.19,2,0,7,0.00
2013-7-15,89.2,85.1,80.5,73.9,71.5,69.5,71,64,55,30.22,30.17,2,1,6,0.00
2013-7-17,93.9,86.5,78.0,74.6,72.3,67.3,86,64,44,30.08,30.00,3,1,10,0.00
2013-7-18,93.5,83.6,73.2,76.7,72.4,68.5,93,71,46,30.04,29.91,4,1,13,0.00
2013-7-19,96.3,87.9,75.6,76.7,71.8,65.2,85,60,45,29.93,29.69,7,2,17,0.00
2013-7-20,87.0,77.5,68.4,71.6,66.7,60.9,84,70,54,29.84,29.69,6,1,20,0.00
2013-7-21,82.0,73.6,65.7,67.2,63.2,59.6,85,71,48,29.97,29.84,3,0,8,0.00
2013-7-22,86.8,77.0,63.9,70.2,66.9,58.0,94,72,55,30.00,29.81,3,1,10,0.07
2013-7-23,80.0,72.5,69.2,72.0,69.5,67.7,96,91,70,29.81,29.55,3,0,9,1.40
2013-7-24,76.3,69.8,60.7,68.1,57.5,50.1,95,65,49,30.01,29.60,7,3,19,0.01
2013-7-25,70.6,65.2,58.0,57.6,55.7,49.3,83,72,61,30.08,30.01,2,1,7,0.00
2013-7-26,76.8,68.1,60.1,61.5,57.9,54.4,88,71,51,30.07,29.99,3,1,8,0.00
2013-7-27,83.5,73.9,57.1,66.4,62.1,55.1,93,68,48,30.04,29.93,2,1,9,0.00
2013-7-28,72.6,69.7,66.1,69.2,66.4,61.0,93,89,76,29.98,29.91,2,0,9,0.23
2013-7-29,80.0,72.4,64.7,65.9,59.8,55.3,88,66,50,30.10,29.94,3,1,11,0.01
2013-7-30,78.6,67.5,60.6,61.0,58.0,55.5,85,72,46,30.16,30.07,3,1,8,0.00
2013-7-31,80.6,69.4,55.8,64.2,58.9,53.8,93,71,42,30.16,30.01,3,0,7,0.00
2013-8-1,77.2,68.4,64.1,68.3,64.0,58.5,92,86,73,30.02,29.83,3,1,13,0.12
2013-8-2,81.8,70.6,60.7,64.1,60.6,56.1,96,73,46,29.86,29.80,4,1,9,0.00
2013-8-3,74.8,68.5,62.2,61.2,54.2,48.7,86,62,41,29.87,29.82,4,1,14,0.00
2013-8-4,77.9,70.9,62.5,61.0,55.2,51.8,75,58,45,29.96,29.82,6,3,26,0.00
2013-8-5,76.7,63.9,54.0,55.2,50.7,45.0,88,65,34,30.05,29.95,5,1,13,0.00
2013-8-6,80.0,69.1,50.1,58.5,54.0,48.2,93,61,35,30.12,30.05,3,1,8,0.00
2013-8-7,77.2,69.7,64.6,64.2,61.0,57.6,83,74,60,30.13,30.01,3,1,10,0.00
2013-8-8,85.8,75.9,69.3,72.0,68.5,63.6,89,78,61,30.02,29.94,4,1,14,0.00
2013-8-9,76.7,73.6,71.2,73.5,70.5,66.7,95,90,81,29.95,29.76,3,1,13,0.87
2013-8-10,77.6,70.8,61.0,66.8,54.2,46.4,88,57,37,30.06,29.85,6,2,20,0.00
2013-8-11,76.5,65.1,52.2,58.9,54.5,49.8,92,70,49,30.11,30.06,2,1,8,0.00
2013-8-14,62.0,60.8,58.4,54.3,54.1,53.6,84,79,76,30.01,29.98,2,1,11,0.00
2013-8-15,74.3,65.7,53.7,57.2,53.4,49.4,93,66,44,30.12,30.01,5,1,14,0.00
2013-8-16,77.8,66.5,51.5,60.1,55.3,49.5,93,70,43,30.18,30.12,3,1,7,0.00
2013-8-17,79.7,70.2,54.7,61.9,58.3,53.0,94,68,43,30.30,30.23,2,1,6,0.00
2013-8-18,72.8,68.0,60.5,64.4,61.7,56.9,91,81,70,30.28,30.10,1,0,3,0.00
2013-8-19,81.3,72.9,62.2,66.5,61.3,55.7,92,69,46,30.10,29.98,4,1,12,0.00
2013-8-20,83.6,76.2,64.2,66.8,62.2,57.2,90,64,45,30.12,30.06,4,1,11,0.00
2013-8-21,86.9,75.8,60.5,68.3,65.1,58.5,93,71,44,30.17,30.01,3,1,9,0.00
2013-8-22,87.5,78.3,67.9,71.3,68.0,65.1,94,72,48,29.99,29.81,5,1,17,0.53
2013-8-23,77.3,69.5,58.7,66.9,56.1,49.0,96,64,41,30.16,29.88,4,2,12,0.01
2013-8-24,76.6,65.4,49.8,56.5,52.7,46.2,95,66,36,30.34,30.16,3,1,7,0.00
2013-8-25,80.8,70.6,52.5,62.3,58.3,49.4,91,67,46,30.39,30.16,2,0,9,0.00
2013-8-26,78.5,70.2,63.6,68.5,65.4,59.2,95,85,70,30.17,29.89,2,0,7,0.25
2013-8-27,82.3,74.5,67.8,70.9,68.1,66.0,96,82,64,29.92,29.85,3,1,7,0.10
2013-8-28,86.3,75.7,63.9,71.3,67.5,62.7,96,77,54,29.92,29.81,2,1,8,0.00
2013-8-29,79.8,70.7,62.1,68.7,64.8,60.4,94,82,65,30.03,29.91,2,0,7,0.00
2013-8-30,84.3,76.3,67.3,70.7,68.0,64.6,93,76,60,29.97,29.80,2,0,6,0.00
2013-8-31,82.3,73.7,69.0,74.3,70.7,67.0,96,90,76,29.81,29.73,3,0,19,0.50
2013-9-1,82.5,75.9,69.2,73.1,70.5,68.0,96,84,70,29.85,29.78,2,0,5,0.01
2013-9-2,81.7,73.5,66.3,73.8,69.7,64.5,95,88,75,29.79,29.65,5,0,9,0.55
2013-9-3,76.3,67.2,62.3,65.5,61.3,56.1,96,83,52,29.87,29.72,5,1,14,0.00
2013-9-4,78.7,67.7,58.1,60.0,57.2,52.9,94,71,42,29.95,29.86,4,1,14,0.00
2013-9-5,70.6,63.4,52.6,59.9,50.7,39.9,88,66,35,30.18,29.88,4,1,11,0.00
2013-9-6,68.5,54.9,42.0,48.5,43.9,37.5,94,70,35,30.28,30.12,3,1,9,0.00
2013-9-7,75.0,60.5,47.7,61.4,52.5,44.9,91,76,48,30.12,29.86,2,0,6,0.00
2013-9-8,72.5,62.8,47.3,61.7,52.7,40.2,92,73,38,30.13,29.80,4,1,13,0.01
2013-9-9,70.7,56.5,41.0,54.7,47.2,39.2,94,73,48,30.24,30.09,2,1,9,0.00
2013-9-10,78.8,68.8,60.8,72.8,65.0,54.1,95,88,77,30.11,29.98,3,1,11,0.43
2013-9-11,92.6,77.9,68.6,79.0,72.3,66.7,94,84,61,30.06,29.91,4,1,12,0.18
2013-9-12,82.5,70.6,67.0,75.1,68.2,65.7,96,92,76,29.93,29.66,3,0,12,1.65
2013-9-13,68.0,60.7,53.1,63.2,58.4,50.5,96,92,82,29.87,29.64,3,1,11,1.03
2013-9-14,61.4,55.5,48.5,51.4,48.6,45.4,91,78,65,30.12,29.87,3,1,8,0.00
2013-9-15,68.8,54.6,41.6,55.8,49.1,40.2,95,83,59,30.19,30.06,2,0,8,0.00
2013-9-16,66.3,54.1,45.1,55.2,49.2,39.3,95,84,66,30.32,30.07,4,1,10,0.11
2013-9-17,63.0,49.8,37.5,47.0,43.0,35.9,95,80,50,30.47,30.32,3,0,7,0.00
2013-9-18,69.9,54.0,39.1,54.2,47.6,37.4,95,81,48,30.35,30.15,1,0,5,0.00
2013-9-19,74.8,63.8,48.4,56.5,52.3,46.5,93,69,40,30.17,30.04,3,0,5,0.00
2013-9-20,78.5,70.3,49.0,63.2,58.7,47.6,95,68,52,30.09,29.94,5,1,8,0.00
2013-9-21,72.8,68.9,60.8,64.0,61.3,56.0,92,77,66,29.90,29.59,9,3,16,0.06
2013-9-22,63.4,57.6,49.8,61.0,50.2,43.0,95,77,54,29.93,29.62,9,2,20,0.31
2013-9-23,61.1,51.2,44.2,45.0,42.2,40.0,89,72,54,30.08,29.92,6,1,13,0.00
2013-9-24,65.9,51.7,38.2,48.0,43.2,36.0,93,75,48,30.08,29.88,5,1,11,0.00
2013-9-25,68.1,54.0,41.6,53.0,47.2,40.0,95,80,53,29.98,29.90,4,1,7,0.00
2013-9-26,64.7,55.1,44.5,52.0,48.4,43.0,95,79,57,30.14,29.98,5,1,11,0.00
2013-9-27,60.5,51.9,42.8,53.0,48.1,41.0,95,87,73,30.30,30.14,3,0,6,0.00
2013-9-28,70.6,55.2,44.7,56.0,50.4,43.0,96,85,55,30.38,30.25,3,0,7,0.00
2013-9-29,72.2,60.9,44.9,57.0,52.9,44.0,96,77,52,30.22,30.06,4,0,8,0.00
2013-9-30,71.5,57.2,46.6,59.0,50.6,45.0,95,81,48,30.10,29.97,3,0,6,0.00
2013-10-1,76.1,58.5,44.6,62.0,52.4,43.0,95,82,55,30.02,29.89,4,0,11,0.00
2013-10-2,76.2,63.1,51.7,63.0,56.6,50.0,95,80,57,30.02,29.90,6,1,12,0.00
2013-10-3,69.1,54.5,45.5,56.0,50.3,44.0,95,87,56,30.13,30.02,4,0,6,0.00
2013-10-4,61.3,58.2,55.9,59.0,55.9,52.0,95,92,85,30.08,30.02,4,1,8,0.61
2013-10-5,61.9,58.7,56.3,57.0,56.0,55.0,94,90,83,30.11,30.05,4,0,6,0.03
2013-10-6,63.2,57.6,52.8,59.0,54.9,51.0,96,91,83,30.11,30.02,9,1,14,0.29
2013-10-7,75.1,63.6,52.6,67.0,59.9,50.0,95,88,74,30.01,29.63,8,2,22,1.21
2013-10-8,64.0,53.7,43.9,50.0,45.2,41.0,94,75,47,30.37,29.96,7,1,11,0.00
2013-10-9,64.0,48.7,37.8,49.0,42.6,36.0,96,82,48,30.49,30.35,6,0,9,0.00
2013-10-10,57.6,54.2,50.6,51.0,49.3,48.0,93,84,72,30.27,30.17,2,0,5,0.00
2013-10-11,68.3,56.2,48.0,53.0,48.8,43.0,95,79,46,30.17,30.09,4,1,10,0.00
2013-10-12,73.2,58.7,39.6,57.0,49.4,38.0,95,74,52,30.28,30.23,5,1,13,0.01
2013-10-14,63.7,58.1,51.2,53.0,50.6,48.0,89,76,67,30.35,30.29,3,1,9,0.00
2013-10-16,64.5,61.8,60.1,56.0,55.0,53.0,84,78,73,30.02,29.85,4,1,11,0.00
2013-10-17,67.7,61.6,56.8,57.0,53.4,49.0,94,76,52,29.89,29.66,5,1,9,0.03
2013-10-18,63.9,54.6,41.8,50.2,43.9,37.7,91,69,39,29.95,29.73,9,2,16,0.15
2013-10-19,65.2,52.1,40.7,48.9,43.0,38.6,93,73,45,29.95,29.69,8,1,13,0.01
2013-10-20,55.1,47.5,43.7,49.4,39.2,36.3,83,73,51,30.03,29.70,6,1,12,0.00
2013-10-21,65.8,53.1,41.2,45.2,40.5,37.0,86,65,41,30.11,29.92,8,1,11,0.00
2013-10-22,53.6,52.1,48.6,49.2,45.7,41.5,90,79,74,29.82,29.76,6,2,12,0.02
2013-10-23,47.9,41.4,33.5,37.3,34.7,31.7,93,78,62,29.78,29.67,3,0,7,0.00
2013-10-24,50.9,43.7,32.0,36.0,31.7,28.0,94,65,45,29.91,29.79,9,2,18,0.01
2013-10-25,49.1,42.8,35.5,34.6,32.5,29.7,87,68,53,30.17,30.04,7,2,14,0.00
2013-10-26,50.8,45.2,34.6,37.0,33.2,30.0,90,64,47,30.11,29.86,5,2,16,0.00
2013-10-27,50.7,46.4,36.8,36.7,34.8,32.8,86,64,51,30.06,29.88,10,2,16,0.00
2013-10-28,56.6,46.8,33.3,38.3,32.3,24.1,90,59,41,30.36,30.10,7,2,17,0.00
2013-10-29,44.9,36.9,25.3,29.3,25.4,22.8,90,64,43,30.47,30.38,5,1,8,0.00
2013-10-30,50.8,42.7,36.5,40.4,37.0,33.6,91,81,66,30.32,30.20,3,0,5,0.00
2013-10-31,60.4,53.4,37.5,58.4,51.2,35.9,95,92,86,30.15,29.74,8,2,17,0.00
2013-11-1,68.2,64.0,55.0,61.7,53.2,42.8,91,70,47,29.68,29.39,9,3,22,0.01
2013-11-2,56.6,49.6,41.6,50.0,44.3,39.2,92,82,67,29.79,29.63,4,1,12,0.00
2013-11-3,41.1,36.7,30.8,25.8,22.1,16.8,65,55,48,30.45,30.15,10,3,15,0.00
2013-11-4,39.9,32.9,20.6,23.7,20.0,17.4,90,61,41,30.69,30.64,10,1,11,0.00
2013-11-5,52.3,44.2,26.9,37.4,32.9,23.8,88,65,54,30.66,30.50,8,1,13,0.00
2013-11-8,44.7,39.8,35.2,35.7,29.4,26.0,78,66,51,30.15,29.97,13,4,23,0.00
2013-11-9,43.9,39.5,26.0,32.4,29.5,22.7,90,68,56,30.25,30.00,5,1,11,0.00
2013-11-10,49.8,45.1,40.4,38.9,35.7,33.4,83,70,55,29.96,29.77,8,3,22,0.00
2013-11-11,48.0,44.8,38.3,33.3,30.9,28.0,68,58,53,30.17,29.92,4,1,11,0.00
2013-11-12,31.5,31.3,31.0,23.5,23.1,22.7,72,72,71,30.12,30.10,10,4,11,0.00
2013-11-15,54.8,54.3,53.9,22.1,20.8,18.8,28,27,25,30.11,30.11,3,2,8,0.00
2013-11-16,43.1,42.8,42.8,33.3,33.3,33.3,69,69,69,30.26,30.26,0,0,6,0.00
2013-11-17,61.2,61.0,60.8,56.0,55.9,55.7,84,83,83,29.76,29.72,7,6,20,0.00
2013-11-30,27.0,18.9,15.5,15.7,12.5,11.2,83,76,60,30.79,30.69,2,1,18,0.00